EW9322 Weather Reports


time (UTC)temp
C
wind
direction
speed
KPH
gust
KPH
rain 1hr
cm
rain 24hr
cm
rain mn
cm
humidity
%
barometer
mb
20260510190846 11 28 3.2 9.7 0.10 0.10 0.10 89 1026.6
20260510190344 11 64 3.2 9.7 0.08 0.08 0.08 88 1026.4
20260510185845 11 61 4.8 12.9 0.08 0.08 0.08 88 1026.3
20260510185343 11 74 4.8 16.1 0.08 0.08 0.08 88 1026.2
20260510184844 11 30 3.2 16.1 0.08 0.08 0.08 87 1026.3
20260510184839 11 67 3.2 12.9 0.08 0.08 0.08 87 1026.6
20260510183838 11 45 3.2 8.0 0.08 0.08 0.08 86 1026.6
20260510183338 12 37 3.2 12.9 0.05 0.05 0.05 86 1026.7
20260510182837 12 5 3.2 12.9 0.03 0.03 0.03 86 1026.7
20260510182342 12 26 3.2 6.4 0.00 0.00 0.00 85 1025.8
20260510182337 12 15 3.2 12.9 0.03 0.03 0.03 85 1026.4
20260510181336 12 0 3.2 6.4 0.00 0.00 0.00 85 1025.5
20260510180837 12 35 3.2 8.0 0.00 0.00 0.00 83 1025.6
20260510180336 12 0 3.2 9.7 0.00 0.00 0.00 82 1025.9
20260510175834 12 355 3.2 9.7 0.00 0.00 0.00 82 1025.9
20260510175341 12 97 3.2 8.0 0.00 0.00 0.00 81 1025.6
20260510175334 12 322 3.2 8.0 0.00 0.00 0.00 81 1025.9
20260510174834 12 34 3.2 6.4 0.00 0.00 0.00 81 1025.9
20260510174333 12 350 3.2 8.0 0.00 0.00 0.00 81 1025.8
20260510173332 12 46 3.2 8.0 0.00 0.00 0.00 81 1025.5
20260510172837 12 69 3.2 9.7 0.00 0.00 0.00 81 1025.3
20260510172832 12 91 3.2 9.7 0.00 0.00 0.00 81 1025.4
20260510171830 12 26 3.2 8.0 0.00 0.00 0.00 81 1025.2
20260510171330 12 50 3.2 8.0 0.00 0.00 0.00 81 1024.9
20260510170828 12 36 3.2 14.5 0.00 0.00 0.00 81 1024.7
20260510170328 12 37 4.8 16.1 0.00 0.00 0.00 81 1024.6
20260510165828 12 38 3.2 16.1 0.00 0.00 0.00 81 1024.4
20260510165329 12 25 3.2 9.7 0.00 0.00 0.00 81 1024.3
20260510164829 12 49 4.8 9.7 0.00 0.00 0.00 81 1024.1
20260510164327 12 17 4.8 11.3 0.00 0.00 0.00 81 1024.0
20260510163826 12 39 4.8 11.3 0.00 0.00 0.00 81 1023.9
20260510163326 12 344 4.8 12.9 0.00 0.00 0.00 81 1024.1
20260510162826 12 109 4.8 12.9 0.00 0.00 0.00 81 1024.1
20260510162326 12 24 4.8 11.3 0.00 0.00 0.00 81 1024.1
20260510161827 12 348 6.4 16.1 0.00 0.00 0.00 81 1023.9
20260510161326 12 40 6.4 16.1 0.00 0.00 0.00 81 1024.0
20260510160826 12 25 6.4 14.5 0.00 0.00 0.00 81 1023.8
20260510160327 12 5 6.4 12.9 0.00 0.00 0.00 80 1023.8
20260510155826 12 0 4.8 12.9 0.00 0.00 0.00 80 1023.9
20260510155325 12 44 4.8 12.9 0.00 0.00 0.00 79 1023.8
20260510154825 12 24 4.8 12.9 0.00 0.00 0.00 80 1023.8
20260510154330 13 32 4.8 16.1 0.00 0.00 0.00 80 1023.6
20260510154324 12 331 4.8 12.9 0.00 0.00 0.00 80 1023.7
20260510153824 13 0 4.8 16.1 0.00 0.00 0.00 80 1023.7
20260510152824 13 77 4.8 12.9 0.00 0.00 0.00 80 1023.5
20260510152324 13 32 4.8 12.9 0.00 0.00 0.00 80 1023.4
20260510151824 13 48 4.8 12.9 0.00 0.00 0.00 80 1023.3
20260510151329 13 42 4.8 14.5 0.00 0.00 0.00 81 1023.1
20260510151324 13 351 4.8 14.5 0.00 0.00 0.00 81 1023.3
20260510150327 13 16 3.2 11.3 0.00 0.00 0.00 82 1022.8
20260510150323 13 355 3.2 11.3 0.00 0.00 0.00 82 1022.9
20260510145324 14 348 3.2 11.3 0.00 0.00 0.00 82 1022.7
20260510144829 14 0 4.8 11.3 0.00 0.00 0.00 82 1022.2
20260510144825 14 146 4.8 11.3 0.00 0.00 0.00 82 1022.5
20260510143830 14 355 3.2 11.3 0.00 0.00 0.00 81 1021.9
20260510143823 14 0 4.8 17.7 0.00 0.00 0.00 82 1021.9
20260510143324 14 15 4.8 17.7 0.00 0.00 0.00 82 1021.8
20260510142936 14 86 3.2 9.7 0.00 0.00 0.00 81 1021.9
20260510142436 15 25 4.8 11.3 0.00 0.00 0.00 80 1021.9
20260510141824 15 9 4.8 11.3 0.00 0.00 0.00 80 1022.0
20260510140824 15 42 4.8 8.0 0.00 0.00 0.00 79 1021.8
20260510140328 15 40 4.8 14.5 0.00 0.00 0.00 78 1021.5
20260510140324 15 322 4.8 14.5 0.00 0.00 0.00 79 1021.7
20260510135324 15 5 4.8 14.5 0.00 0.00 0.00 79 1021.3
20260510134826 15 50 4.8 14.5 0.00 0.00 0.00 79 1021.2
20260510134324 15 230 4.8 9.7 0.00 0.00 0.00 78 1021.1
20260510133829 15 5 3.2 6.4 0.00 0.00 0.00 78 1021.1
20260510133825 15 19 3.2 8.0 0.00 0.00 0.00 78 1021.1
20260510133437 16 42 3.2 9.7 0.00 0.00 0.00 79 1020.8
20260510132324 16 326 3.2 9.7 0.00 0.00 0.00 79 1020.6
20260510131822 16 53 3.2 9.7 0.00 0.00 0.00 79 1020.5
20260510131327 16 355 3.2 8.0 0.00 0.00 0.00 78 1020.0
20260510131322 16 19 3.2 8.0 0.00 0.00 0.00 79 1020.2
20260510130822 16 46 3.2 8.0 0.00 0.00 0.00 78 1020.1
20260510125819 16 11 3.2 6.4 0.00 0.00 0.00 78 1020.0
20260510125319 16 339 3.2 6.4 0.00 0.00 0.00 78 1019.8
20260510124823 16 35 3.2 8.0 0.00 0.00 0.00 78 1019.6
20260510124819 16 9 3.2 8.0 0.00 0.00 0.00 78 1019.7
20260510123818 16 46 1.6 6.4 0.00 0.00 0.00 79 1019.3
20260510123317 16 32 1.6 8.0 0.00 0.00 0.00 79 1019.2
20260510122817 16 18 3.2 8.0 0.00 0.00 0.00 80 1019.1
20260510122316 16 37 3.2 6.4 0.00 0.00 0.00 80 1018.8
20260510121816 16 63 4.8 8.0 0.00 0.00 0.00 80 1018.7
20260510121321 16 69 3.2 11.3 0.00 0.00 0.00 81 1018.4
20260510121317 16 43 4.8 11.3 0.00 0.00 0.00 80 1018.4
20260510120315 16 61 3.2 9.7 0.00 0.00 0.00 80 1018.4
20260510115815 16 19 1.6 8.0 0.00 0.00 0.00 81 1018.2
20260510115315 16 65 3.2 8.0 0.00 0.00 0.00 81 1018.2
20260510114816 16 30 3.2 9.7 0.00 0.00 0.00 81 1018.0
20260510114316 16 53 3.2 12.9 0.00 0.00 0.00 81 1017.9
20260510113818 16 40 3.2 6.4 0.00 0.00 0.00 80 1017.9
20260510113814 16 77 3.2 12.9 0.00 0.00 0.00 80 1017.8
20260510112818 16 82 3.2 12.9 0.00 0.00 0.00 79 1017.8
20260510112814 16 55 3.2 12.9 0.00 0.00 0.00 80 1017.7
20260510111813 16 50 1.6 6.4 0.00 0.00 0.00 80 1017.7
20260510111313 16 52 1.6 4.8 0.00 0.00 0.00 79 1017.5
20260510110813 16 12 1.6 6.4 0.00 0.00 0.00 79 1017.3
20260510110312 16 5 1.6 6.4 0.00 0.00 0.00 79 1017.4
20260510105812 16 38 1.6 6.4 0.00 0.00 0.00 79 1017.3
20260510105313 16 5 1.6 4.8 0.00 0.00 0.00 78 1017.2
20260510105308 16 32 1.6 4.8 0.00 0.00 0.00 78 1017.3
20260510104308 16 5 1.6 4.8 0.00 0.00 0.00 78 1017.4
20260510103808 16 52 1.6 4.8 0.00 0.00 0.00 77 1017.2
20260510103308 16 67 1.6 4.8 0.00 0.00 0.00 77 1016.8
20260510102808 16 90 1.6 4.8 0.00 0.00 0.00 76 1016.8
20260510102306 16 25 1.6 4.8 0.00 0.00 0.00 76 1016.9
20260510101804 16 26 1.6 6.4 0.00 0.00 0.00 76 1017.0
20260510101304 16 28 1.6 6.4 0.00 0.00 0.00 75 1016.8
20260510100803 16 49 1.6 4.8 0.00 0.00 0.00 75 1016.6
20260510100304 16 349 1.6 4.8 0.00 0.00 0.00 75 1016.4
20260510095803 16 18 1.6 3.2 0.00 0.00 0.00 75 1016.2
20260510095305 16 67 1.6 4.8 0.00 0.00 0.00 75 1016.0
20260510094805 17 37 1.6 6.4 0.00 0.00 0.00 75 1016.0
20260510094304 17 47 1.6 6.4 0.00 0.00 0.00 75 1015.8
20260510093804 17 55 0.0 3.2 0.00 0.00 0.00 75 1015.5
20260510093312 17 40 0.0 3.2 0.00 0.00 0.00 74 1015.2
20260510093304 17 27 0.0 3.2 0.00 0.00 0.00 75 1015.4
20260510092804 17 344 0.0 4.8 0.00 0.00 0.00 75 1015.2
20260510092307 17 342 0.0 4.8 0.00 0.00 0.00 75 1015.3
20260510091308 17 76 1.6 3.2 0.00 0.00 0.00 74 1015.1
20260510091304 17 76 1.6 3.2 0.00 0.00 0.00 74 1015.1
20260510090304 18 76 0.0 3.2 0.00 0.00 0.00 74 1015.1
20260510085804 18 76 1.6 4.8 0.00 0.00 0.00 73 1014.9
20260510085306 18 76 1.6 4.8 0.00 0.00 0.00 73 1014.9
20260510084808 18 66 0.0 3.2 0.00 0.00 0.00 72 1014.9
20260510084803 18 76 0.0 4.8 0.00 0.00 0.00 72 1014.9
20260510083803 18 66 0.0 4.8 0.00 0.00 0.00 71 1014.9
20260510083304 18 66 1.6 4.8 0.00 0.00 0.00 71 1015.0
20260510082803 18 48 1.6 4.8 0.00 0.00 0.00 72 1015.1
20260510082306 19 20 1.6 4.8 0.00 0.00 0.00 71 1014.9
20260510081803 19 20 1.6 4.8 0.00 0.00 0.00 71 1015.1
20260510081304 19 65 1.6 4.8 0.00 0.00 0.00 70 1015.1
20260510080802 19 55 1.6 4.8 0.00 0.00 0.00 70 1015.2
20260510080259 19 63 3.2 9.7 0.00 0.00 0.00 70 1015.1
20260510075759 19 94 3.2 9.7 0.00 0.00 0.00 69 1015.2
20260510075300 20 68 3.2 8.0 0.00 0.00 0.00 68 1015.0
20260510074755 20 71 3.2 12.9 0.00 0.00 0.00 68 1014.9
20260510074255 20 66 3.2 12.9 0.00 0.00 0.00 67 1014.7
20260510073754 20 65 3.2 6.4 0.00 0.00 0.00 66 1014.7
20260510073252 20 72 1.6 6.4 0.00 0.00 0.00 65 1014.6
20260510072756 20 74 3.2 6.4 0.00 0.00 0.00 64 1014.6
20260510072752 20 42 1.6 4.8 0.00 0.00 0.00 64 1014.5
20260510071756 20 81 3.2 11.3 0.00 0.00 0.00 63 1014.3
20260510071751 20 74 3.2 11.3 0.00 0.00 0.00 64 1014.2
20260510070749 21 67 3.2 8.0 0.00 0.00 0.00 62 1014.4
20260510070249 21 53 3.2 8.0 0.00 0.00 0.00 60 1014.3
20260510065746 21 59 3.2 6.4 0.00 0.00 0.00 59 1014.3
20260510065245 21 63 3.2 6.4 0.00 0.00 0.00 58 1014.4
20260510064745 22 56 3.2 6.4 0.00 0.00 0.00 56 1014.4
20260510064247 22 47 3.2 6.4 0.00 0.00 0.00 51 1014.4
20260510064243 22 71 3.2 6.4 0.00 0.00 0.00 53 1014.4
20260510063856 23 61 3.2 8.0 0.00 0.00 0.00 38 1014.3
20260510063243 23 59 1.6 6.4 0.00 0.00 0.00 47 1014.4
20260510062743 23 42 1.6 8.0 0.00 0.00 0.00 40 1014.5
20260510061743 23 346 3.2 4.8 0.00 0.00 0.00 38 1014.2
20260510061242 24 54 1.6 6.4 0.00 0.00 0.00 29 1014.0
20260510060741 24 5 1.6 6.4 0.00 0.00 0.00 23 1014.0
20260510060245 24 355 1.6 4.8 0.00 0.00 0.00 22 1013.4
20260510060241 24 14 1.6 4.8 0.00 0.00 0.00 23 1013.8
20260510055737 24 34 0.0 3.2 0.00 0.00 0.00 23 1013.2
20260510054737 24 34 0.0 4.8 0.00 0.00 0.00 22 1013.2
20260510054237 24 34 0.0 4.8 0.00 0.00 0.00 22 1013.1
20260510053736 24 311 0.0 1.6 0.00 0.00 0.00 22 1013.0
20260510053237 25 311 0.0 3.2 0.00 0.00 0.00 22 1012.8
20260510052737 25 311 0.0 3.2 0.00 0.00 0.00 22 1012.8
20260510052237 25 311 0.0 1.6 0.00 0.00 0.00 22 1012.8
20260510051733 25 311 0.0 1.6 0.00 0.00 0.00 22 1013.0
20260510051232 25 311 0.0 1.6 0.00 0.00 0.00 22 1013.1
20260510050729 25 311 0.0 1.6 0.00 0.00 0.00 22 1013.1
20260510050229 25 311 0.0 1.6 0.00 0.00 0.00 22 1013.2
20260510045727 25 307 0.0 1.6 0.00 0.00 0.00 22 1013.3
20260510045231 26 307 0.0 1.6 0.00 0.00 0.00 21 1013.3
20260510045227 25 307 0.0 1.6 0.00 0.00 0.00 21 1013.3
20260510044225 26 307 0.0 3.2 0.00 0.00 0.00 21 1013.3
20260510043725 26 307 0.0 3.2 0.00 0.00 0.00 21 1013.2
20260510043224 26 329 1.6 3.2 0.00 0.00 0.00 20 1013.2
20260510042724 26 329 1.6 4.8 0.00 0.00 0.00 20 1013.2
20260510042223 26 336 0.0 4.8 0.00 0.00 0.00 19 1013.2
20260510041725 27 319 0.0 1.6 0.00 0.00 0.00 20 1013.1
20260510041224 27 319 0.0 3.2 0.00 0.00 0.00 19 1013.1
20260510040724 27 319 1.6 4.8 0.00 0.00 0.00 19 1013.2
20260510040225 27 319 3.2 11.3 0.00 0.00 0.00 19 1013.3
20260510035724 27 321 3.2 11.3 0.00 0.00 0.00 19 1013.2
20260510035220 27 322 3.2 6.4 0.00 0.00 0.00 19 1013.1
20260510034719 27 323 3.2 8.0 0.00 0.00 0.00 19 1013.0
20260510034225 25 311 1.6 6.4 0.00 0.00 0.00 21 1013.1
20260510034220 26 346 3.2 9.7 0.00 0.00 0.00 20 1012.8
20260510033717 26 328 3.2 9.7 0.00 0.00 0.00 21 1013.1
20260510032717 25 309 0.0 4.8 0.00 0.00 0.00 21 1013.0
20260510032329 25 333 0.0 0.0 0.00 0.00 0.00 19 1012.3
20260510032220 25 333 0.0 1.6 0.00 0.00 0.00 20 1012.3
20260510032215 25 333 0.0 1.6 0.00 0.00 0.00 21 1012.6
20260510031327 25 335 1.6 3.2 0.00 0.00 0.00 20 1012.2
20260510030717 25 333 0.0 4.8 0.00 0.00 0.00 19 1012.1
20260510030215 25 333 1.6 4.8 0.00 0.00 0.00 19 1012.1
20260510025214 25 325 0.0 3.2 0.00 0.00 0.00 20 1012.3
20260510024714 25 142 0.0 0.0 0.00 0.00 0.00 19 1011.9
20260510024214 25 142 0.0 0.0 0.00 0.00 0.00 19 1011.6
20260510023713 25 142 0.0 0.0 0.00 0.00 0.00 19 1011.5
20260510023213 26 142 0.0 0.0 0.00 0.00 0.00 18 1011.4
20260510022713 26 142 0.0 1.6 0.00 0.00 0.00 17 1011.2
20260510022213 26 142 0.0 3.2 0.00 0.00 0.00 17 1011.0
20260510021712 26 142 0.0 3.2 0.00 0.00 0.00 17 1011.0
20260510021213 26 142 0.0 1.6 0.00 0.00 0.00 18 1011.3
20260510020712 26 142 0.0 1.6 0.00 0.00 0.00 17 1011.0
20260510020211 26 142 0.0 1.6 0.00 0.00 0.00 16 1010.9
20260510015711 26 142 0.0 6.4 0.00 0.00 0.00 16 1010.9
20260510015211 27 142 0.0 6.4 0.00 0.00 0.00 16 1010.9
20260510014711 27 309 0.0 1.6 0.00 0.00 0.00 16 1010.8
20260510014211 27 309 0.0 0.0 0.00 0.00 0.00 17 1010.7
20260510013716 28 309 0.0 0.0 0.00 0.00 0.00 17 1010.6
20260510013712 27 309 0.0 0.0 0.00 0.00 0.00 17 1010.6
20260510012711 28 309 0.0 0.0 0.00 0.00 0.00 16 1010.6
20260510012211 28 309 0.0 0.0 0.00 0.00 0.00 15 1010.5
20260510011710 28 309 0.0 0.0 0.00 0.00 0.00 14 1010.4
20260510011208 29 309 0.0 0.0 0.00 0.00 0.00 14 1010.4
20260510010709 29 309 0.0 0.0 0.00 0.00 0.00 14 1010.3
20260510010209 30 309 0.0 0.0 0.00 0.00 0.00 14 1010.3
20260510005710 30 309 0.0 1.6 0.00 0.00 0.00 13 1010.3
20260510005209 30 309 0.0 1.6 0.00 0.00 0.00 13 1010.2
20260510004709 30 309 0.0 3.2 0.00 0.00 0.00 13 1010.2
20260510004210 31 309 1.6 4.8 0.00 0.00 0.00 12 1010.2
20260510003714 31 309 1.6 4.8 0.00 0.00 0.00 12 1010.2
20260510003709 31 309 1.6 4.8 0.00 0.00 0.00 12 1010.2
20260510002715 32 281 3.2 8.0 0.00 0.00 0.00 12 1010.2
20260510002708 31 309 1.6 6.4 0.00 0.00 0.00 12 1010.2
20260510002208 31 307 1.6 6.4 0.00 0.00 0.00 11 1010.2
20260510001707 31 310 3.2 8.0 0.00 0.00 0.00 11 1010.0
20260510001207 31 292 3.2 8.0 0.00 0.00 0.00 11 1010.2
20260510000207 32 297 3.2 6.4 0.00 0.00 0.00 11 1010.3
20260509235708 32 282 3.2 8.0 0.00 0.00 0.00 11 1010.2
20260509235212 32 326 3.2 6.4 0.00 0.00 0.00 11 1010.2
20260509235208 32 333 3.2 8.0 0.00 0.00 0.00 11 1010.2
20260509234819 32 32 3.2 6.4 0.00 0.00 0.00 10 1010.3
20260509233707 32 289 3.2 6.4 0.00 0.00 0.00 11 1010.3
20260509233205 32 259 3.2 8.0 0.00 0.00 0.00 11 1010.4
20260509232703 33 323 3.2 8.0 0.00 0.00 0.00 10 1010.4
20260509232203 33 336 1.6 6.4 0.00 0.00 0.00 10 1010.4
20260509231702 33 259 1.6 9.7 0.00 0.00 0.00 10 1010.4
20260509231200 32 234 3.2 11.3 0.00 0.00 0.00 10 1010.5
20260509230701 32 78 4.8 11.3 0.00 0.00 0.00 9 1010.5
20260509230200 32 297 6.4 14.5 0.00 0.00 0.00 9 1010.6
20260509225701 32 185 6.4 14.5 0.00 0.00 0.00 9 1010.5
20260509225202 32 287 4.8 12.9 0.00 0.00 0.00 10 1010.5
20260509224702 33 260 6.4 14.5 0.00 0.00 0.00 10 1010.6
20260509224201 32 326 6.4 14.5 0.00 0.00 0.00 10 1010.7
20260509223659 32 287 4.8 14.5 0.00 0.00 0.00 10 1010.9
20260509223200 33 300 4.8 12.9 0.00 0.00 0.00 10 1010.8
20260509222657 33 300 4.8 12.9 0.00 0.00 0.00 10 1010.9
20260509222157 33 279 4.8 9.7 0.00 0.00 0.00 11 1010.9
20260509221658 33 318 4.8 11.3 0.00 0.00 0.00 11 1010.8
20260509221156 33 271 4.8 11.3 0.00 0.00 0.00 10 1010.8
20260509220655 33 289 4.8 9.7 0.00 0.00 0.00 11 1011.2
20260509220153 33 336 4.8 16.1 0.00 0.00 0.00 11 1011.0
20260509215652 32 317 6.4 16.1 0.00 0.00 0.00 11 1011.3
20260509215152 32 234 6.4 14.5 0.00 0.00 0.00 10 1011.2
20260509214652 32 287 6.4 16.1 0.00 0.00 0.00 11 1011.3
20260509214153 32 278 6.4 16.1 0.00 0.00 0.00 11 1011.4
20260509213654 32 280 8.0 16.1 0.00 0.00 0.00 10 1011.5
20260509213157 33 275 6.4 16.1 0.00 0.00 0.00 9 1011.6
20260509213153 32 259 6.4 16.1 0.00 0.00 0.00 10 1011.5
20260509212153 33 333 6.4 16.1 0.00 0.00 0.00 10 1011.7
20260509211652 33 327 6.4 16.1 0.00 0.00 0.00 12 1011.6
20260509211154 32 98 6.4 16.1 0.00 0.00 0.00 10 1011.6
20260509210658 32 268 6.4 17.7 0.00 0.00 0.00 10 1011.9
20260509210653 32 315 8.0 17.7 0.00 0.00 0.00 9 1011.7
20260509205652 32 327 6.4 17.7 0.00 0.00 0.00 10 1011.9
20260509205150 32 288 6.4 17.7 0.00 0.00 0.00 11 1011.9
20260509204650 32 244 6.4 16.1 0.00 0.00 0.00 13 1011.9
20260509204152 32 287 6.4 19.3 0.00 0.00 0.00 12 1012.1
20260509204148 32 285 8.0 19.3 0.00 0.00 0.00 12 1012.1
20260509203154 32 280 6.4 24.1 0.00 0.00 0.00 12 1012.2
20260509203148 32 298 6.4 24.1 0.00 0.00 0.00 13 1012.1
20260509202149 32 21 6.4 12.9 0.00 0.00 0.00 12 1012.2
20260509201646 32 325 6.4 19.3 0.00 0.00 0.00 13 1012.2
20260509201146 32 252 6.4 19.3 0.00 0.00 0.00 12 1012.3
20260509200648 32 335 6.4 20.9 0.00 0.00 0.00 14 1012.3
20260509200146 32 287 8.0 20.9 0.00 0.00 0.00 11 1012.3
20260509195646 32 269 6.4 14.5 0.00 0.00 0.00 15 1012.3
20260509195147 32 300 6.4 14.5 0.00 0.00 0.00 15 1012.3
20260509194647 31 268 8.0 14.5 0.00 0.00 0.00 14 1012.3
20260509194147 32 247 8.0 17.7 0.00 0.00 0.00 15 1012.4
20260509193647 31 268 8.0 17.7 0.00 0.00 0.00 15 1012.4
20260509193151 31 271 4.8 17.7 0.00 0.00 0.00 16 1012.5
20260509193146 31 248 6.4 17.7 0.00 0.00 0.00 15 1012.4
20260509192800 31 288 3.2 11.3 0.00 0.00 0.00 17 1012.6
20260509191646 31 239 4.8 12.9 0.00 0.00 0.00 17 1012.6
20260509191147 31 229 6.4 17.7 0.00 0.00 0.00 17 1012.8